Location: McFarlands Corners
(41.4117°N, 81.3382°W)
Time: 01:10:51
(UTC+00:00)

Tiros 1 - Pass Details

Date: 23 February 2026
Orbit: 618 x 649 km, 48.4° (Epoch: 10 March)

Event Time Altitude Azimuth Distance (km) Brightness Sun altitude
Rises 11:34:12 0° 226° (SW) 2,924 10.1 -7.3°
Reaches altitude 10° 11:36:33 10° 222° (SW) 2,013 9.4 -6.8°
Maximum altitude 11:41:05 56° 145° (SE) 749 7.8 -6.0°
Drops below altitude 10° 11:45:36 10° 67° (ENE) 2,002 10.7 -5.1°
Sets 11:47:56 0° 63° (ENE) 2,907 11.5 -4.7°
